Погода в Марковке

Россия / Оренбургская область     52°21′01″N   52°40′03″E
темп.,
°C
ветер,
м/с
пор.,
м/с
влажн.,
%
обл.,
%
осадки,
мм/ч
давл.,
гПа
погр.,
м
8 марта, пн
пн823:00−13ююз599894 0.1 1014162
02:00−12ююз71393100 0.0 1012321
05:00−9ююз101793100 0.2 1009644
08:00−6ююз111992100 0.5 1006850
11:00−5юз111792100 1.0 1006842
14:00−3юз101594100 0.6 1007877
17:00−2юз91494100 1.3 1007856
20:00−3юз81593100 0.2 1007715
9 марта, вт
вт923:00−3юз91595100 0.8 1007839
02:00−2юз91594100 0.9 1006842
05:00−5з5118897 1.3 1009318
08:00−10з339195 0.0 101025
11:00−8св118298 0.0 101155
14:00−5в3492100 0.1 1010255
17:00−4всв4696100 1.4 1008309
20:00−3ю2898100 2.4 1006494
10 марта, ср
ср1023:00−5ссз3597100 5.3 1005193
02:00−8сз81294100 2.8 1004559
05:00−10зсз81492100 3.8 1005536
08:00−15зсз6119592 0.1 1008254
11:00−15зсз7119489 0.1 1010351
14:00−13зсз71091100 0.0 1012581
17:00−13зсз71191100 0.1 1013661
20:00−17сз61194100 0.1 1015417
11 марта, чт
чт1123:00−19сз6119598 0.1 1016370
02:00−22сз5109899 0.1 1017226
05:00−26сз599880 0.1 1019170
08:00−27сз5109756 0.0 1021185
11:00−24сз6109556 0.0 1023271
14:00−21сз589328 0.0 1024332
17:00−19зсз589224 0.0 1025325
20:00−21зсз49983 0.0 1026149
12 марта, пт
пт1223:00−21зсз479950 0.0 1028112
02:00−21зсз3410085 0.0 102839
05:00−21зсз3410073 0.0 102944
08:00−21сз3410089 0.0 103054
11:00−17сз469585 0.0 1032187
14:00−13сз45900 0.0 1033239
17:00−12сз36900 0.0 1033208
20:00−15сз45900 0.0 103462